Theta_e
342 339 339 337 335 331 326 323 322 321 320 318 315 314 314 312 311 311 310 309 309 310 309 309 310 311 311 312 311 311 310 310 309 307 308 309 310 310 310 309 308 309 309
335 333 332 330 328 324 322 321 320 318 316 314 312 311 311 310 310 309 308 307 307 307 308 309 309 309 310 310 310 309 309 308 307 307 307 309 310 309 309 308 308 308 307
330 327 324 323 322 320 318 316 315 313 312 310 310 310 310 309 307 307 307 307 306 306 306 307 307 307 308 308 307 308 307 306 306 307 308 309 309 309 308 307 307 306 306
323 320 315 314 313 312 312 312 312 311 311 309 310 309 308 308 307 307 306 306 307 306 306 305 305 305 305 305 305 306 306 304 305 306 307 308 308 308 307 306 304 304 303
314 313 311 313 312 311 311 310 309 310 308 308 309 308 307 304 300 302 304 305 305 305 305 305 304 302 300 300 301 303 303 303 304 305 306 307 308 306 305 303 301 301 301
310 309 309 310 311 309 310 308 307 307 307 308 307 307 304 299 297 298 297 301 304 304 304 304 304 303 302 302 301 300 300 301 303 303 304 305 304 303 302 299 299 300 300
311 311 310 308 308 306 304 304 305 304 305 305 305 304 302 298 296 296 296 303 303 304 304 304 303 302 301 300 300 300 303 303 302 302 302 303 302 301 299 297 299 299 299
311 310 308 306 304 305 304 302 303 304 304 303 303 303 302 296 295 295 299 303 303 302 302 301 300 300 298 295 296 300 303 303 304 302 301 300 299 298 295 296 298 299 299
307 305 307 306 303 303 302 302 302 303 303 301 301 300 301 296 294 294 298 302 302 301 300 300 298 298 295 293 295 300 301 303 302 300 300 300 298 295 294 295 298 297 298
303 303 303 301 299 299 299 299 300 301 300 300 300 300 298 298 293 293 297 300 301 301 301 299 297 295 292 292 295 298 298 299 298 300 301 300 298 293 293 295 294 295 295
299 299 298 298 297 297 298 299 300 300 301 300 300 300 299 296 295 293 293 297 296 300 300 299 298 292 292 292 293 295 294 294 298 299 299 297 293 293 292 292 292 292 293
297 297 296 296 297 298 299 300 300 301 301 301 301 301 299 299 296 294 293 293 294 298 298 298 296 293 293 294 294 293 293 294 295 295 293 291 291 291 291 291 292 292 293
295 296 297 297 299 299 299 300 300 300 301 300 300 300 299 298 296 294 295 294 294 295 295 295 294 294 295 297 295 294 292 291 290 289 289 289 289 289 290 291 292 293 295
296 296 297 298 299 298 298 298 298 298 299 298 297 297 297 295 293 293 293 293 292 294 295 297 295 295 296 296 296 293 289 288 287 287 287 287 288 289 290 290 291 293 295
297 298 298 298 298 296 294 294 292 290 291 294 295 294 294 293 290 288 288 289 290 292 294 295 294 295 296 295 294 292 288 287 286 286 286 287 287 288 289 290 291 293 295
301 301 300 299 298 296 294 290 288 288 288 289 290 290 292 288 287 287 288 289 290 291 294 294 294 293 293 292 291 288 286 286 285 285 286 286 287 287 288 290 292 294 296
300 299 298 298 298 297 297 297 294 289 289 288 288 288 287 286 287 288 289 290 290 292 293 292 292 292 291 292 290 287 286 286 285 285 285 286 286 287 288 289 292 295 297
297 296 297 296 296 296 295 295 294 295 295 293 289 288 287 288 288 289 290 292 292 292 292 291 291 290 290 290 289 288 288 289 286 285 285 285 286 287 288 290 292 294 297
296 296 296 295 295 294 294 294 294 294 294 293 293 291 290 290 290 290 290 291 291 291 291 290 290 290 289 289 288 288 288 288 286 285 285 285 285 287 289 291 292 294 297
295 294 295 294 294 294 294 293 294 293 293 292 290 290 291 292 292 291 290 290 290 290 290 290 289 289 289 288 287 287 287 287 286 284 285 284 285 287 289 291 293 296 300
295 294 294 294 294 293 293 293 293 293 293 291 288 287 288 291 291 290 290 290 289 289 289 289 289 288 288 287 287 287 286 286 284 284 284 284 285 287 289 291 294 298 302
295 295 294 294 293 293 292 292 292 292 292 291 291 289 289 290 290 290 289 289 289 289 288 288 288 288 287 286 286 286 285 284 282 284 284 285 285 287 289 291 294 297 300
294 294 293 292 291 291 292 292 292 292 291 291 290 290 290 290 289 289 289 289 288 288 288 288 288 287 286 286 285 285 284 282 282 283 284 286 286 286 288 290 292 295 296
294 293 293 293 292 292 292 290 289 289 290 290 290 290 289 289 289 288 288 288 288 288 288 287 287 287 286 285 284 283 282 280 282 284 286 287 286 286 287 289 291 293 293
293 293 292 292 292 291 291 291 291 290 290 289 289 289 289 288 288 288 288 288 287 287 287 287 286 286 285 284 283 282 281 282 283 285 286 287 287 287 287 287 289 290 291
293 292 292 292 291 291 291 291 290 290 289 289 289 288 288 288 288 287 287 287 287 287 287 286 286 285 285 283 281 281 281 282 284 286 287 288 287 288 287 287 287 289 289
Wind_Speed
10 10 9 11 15 17 20 22 25 21 20 17 14 10 9 6 5 4 3 6 8 9 8 8 9 11 12 13 13 13 15 16 12 19 24 23 21 20 24 23 23 21 20
13 16 19 20 21 23 24 24 22 22 21 14 12 9 8 6 5 3 3 5 7 8 9 9 10 12 13 13 12 14 15 16 16 18 22 22 22 23 22 25 22 20 20
24 25 24 23 24 25 29 29 27 20 20 10 11 7 6 5 2 2 3 5 6 7 9 11 12 13 13 14 14 14 14 15 18 21 22 22 22 21 23 22 24 21 21
27 28 30 30 29 26 25 26 24 19 14 11 6 5 4 4 3 4 5 6 8 8 9 11 12 12 14 15 15 15 13 16 19 19 21 22 23 22 24 25 26 24 23
28 30 31 31 31 29 27 21 18 15 10 8 7 5 4 7 6 8 8 9 9 10 10 10 11 12 12 12 15 17 17 18 20 19 21 22 23 25 25 24 25 25 22
27 28 29 29 30 26 28 22 16 15 10 4 6 4 5 7 7 10 11 11 11 10 10 11 11 10 12 16 13 18 18 17 17 18 20 21 23 25 24 23 22 21 7
29 29 28 28 24 21 21 22 18 10 9 7 5 5 8 9 13 12 10 7 8 10 10 11 12 13 15 17 20 22 20 17 17 18 17 21 25 24 24 24 21 20 20
24 20 20 21 20 28 22 17 15 10 8 6 6 7 7 10 12 14 7 7 8 9 10 11 12 13 15 22 23 22 19 17 14 10 19 23 22 25 25 21 22 23 21
26 21 17 20 23 20 18 16 12 10 8 6 5 8 7 10 16 17 11 8 10 10 10 10 12 16 22 21 19 19 19 17 17 21 23 20 23 24 20 19 15 17 13
21 20 20 18 19 25 19 14 10 9 7 6 8 10 9 9 18 22 18 13 12 11 9 10 13 19 19 18 16 17 20 22 25 23 21 21 21 22 18 12 18 16 13
24 19 22 22 21 19 15 11 11 8 8 7 8 8 8 11 13 21 23 15 15 13 13 13 12 20 17 14 16 17 19 22 22 22 22 21 22 20 17 18 19 18 17
24 23 21 21 16 14 15 11 9 9 8 8 6 7 8 7 11 20 21 21 21 14 14 14 16 18 18 11 18 20 20 20 20 21 21 23 23 25 23 24 22 19 17
31 27 20 19 15 13 12 11 9 7 7 8 8 7 8 11 14 18 16 18 18 15 13 12 17 17 17 15 16 23 22 22 22 22 23 23 25 27 27 25 22 21 18
26 26 22 18 13 12 12 11 10 8 9 10 10 10 10 13 16 16 17 19 18 16 14 13 16 17 15 18 19 22 23 23 23 22 24 26 26 25 25 26 24 22 19
22 19 18 16 12 13 14 14 15 15 12 11 12 11 12 12 14 15 14 19 17 14 15 15 18 19 20 22 23 26 25 27 26 27 27 27 27 27 26 28 22 21 12
17 15 14 13 12 12 14 16 18 14 16 17 15 13 10 12 13 12 11 20 20 20 17 19 21 21 22 22 24 27 26 28 30 29 28 26 26 26 27 28 21 18 15
15 13 13 11 11 9 9 8 10 12 16 16 14 12 11 11 16 14 13 9 21 19 21 22 21 22 22 22 23 25 26 28 30 29 28 27 27 26 27 25 22 18 16
15 13 12 11 11 10 9 8 8 8 8 8 10 11 13 17 21 21 19 16 18 22 21 22 22 23 23 25 26 27 29 29 33 31 31 29 28 26 26 24 22 18 16
14 13 12 11 10 10 9 9 9 9 8 8 7 8 13 11 16 20 20 21 20 21 22 22 22 23 24 25 26 28 28 30 33 32 32 31 30 28 26 24 23 24 21
13 14 12 12 10 10 9 10 10 9 9 10 11 10 10 12 16 18 20 20 21 21 21 22 22 23 24 25 27 29 30 32 34 34 34 34 32 29 26 26 24 22 20
14 11 11 11 10 10 10 10 10 10 10 11 13 13 13 13 16 18 18 20 21 21 22 21 22 23 24 26 27 29 30 32 34 35 35 36 34 31 31 27 25 24 19
11 10 11 11 11 11 11 11 10 11 10 10 9 11 14 14 15 16 17 18 19 19 19 20 21 22 24 25 27 28 29 31 35 35 37 36 34 32 30 27 25 24 21
11 11 11 12 12 11 11 11 11 10 10 10 10 11 12 14 15 16 16 17 17 18 18 19 21 23 24 24 24 26 27 30 33 33 36 36 36 34 30 27 26 24 23
11 11 11 10 10 10 11 11 12 11 9 10 10 11 12 13 14 14 15 15 16 16 18 18 20 22 24 24 24 25 25 28 27 30 30 34 35 35 31 28 28 25 24
10 11 11 10 10 10 10 10 9 10 10 10 10 11 11 12 13 14 14 15 15 15 17 18 20 20 23 23 26 27 29 29 28 29 28 29 35 35 35 29 29 26 26
10 10 10 10 10 9 9 9 9 9 9 9 9 10 10 11 12 13 13 15 15 14 16 16 20 20 22 23 27 31 31 29 29 29 26 27 30 31 38 33 31 29 28
Wind_Direction
159 162 159 152 149 140 136 133 143 138 133 138 138 125 100 91 75 56 20 349 336 312 310 313 309 312 315 315 316 310 315 320 314 314 314 317 319 324 321 323 317 316 315
124 134 130 128 123 131 130 130 134 127 123 132 117 118 111 106 73 46 23 354 330 325 323 324 324 322 316 313 320 315 314 311 316 304 301 315 321 326 322 324 320 316 314
108 111 113 122 126 126 128 127 125 121 122 104 107 110 103 95 102 61 6 346 335 334 334 326 326 325 322 324 318 314 314 314 306 300 311 315 320 324 327 322 321 321 318
117 112 100 98 100 98 104 118 116 121 110 105 97 109 114 91 31 10 350 347 333 335 331 323 324 327 328 324 316 311 314 315 308 311 314 314 316 327 327 323 320 324 321
109 109 110 124 124 121 113 98 102 95 90 94 118 113 90 56 25 16 356 334 333 328 330 332 326 326 325 316 319 312 315 310 308 316 309 314 319 328 323 322 315 319 320
114 113 118 117 118 118 113 110 93 86 89 119 88 77 69 51 18 9 349 330 326 332 337 334 332 334 328 325 323 311 303 294 298 305 304 315 309 317 316 314 312 319 321
118 121 122 119 108 101 105 113 111 111 116 104 114 95 63 26 9 360 351 338 346 340 343 344 342 341 338 330 326 317 308 296 285 281 284 301 310 314 314 309 311 307 301
101 106 108 112 109 113 106 102 102 109 107 110 85 58 47 13 16 13 25 359 6 360 358 355 358 349 338 330 325 323 319 319 312 309 303 304 304 311 310 305 304 302 305
105 105 111 109 104 99 98 103 107 114 109 93 82 69 57 34 26 22 18 12 6 2 360 353 352 344 331 339 330 325 328 326 326 318 313 313 315 322 321 320 313 318 316
100 106 104 106 109 107 106 103 108 108 105 103 79 69 57 54 30 33 35 16 8 1 11 9 342 338 342 348 342 340 332 328 324 324 323 321 325 327 333 321 318 310 309
104 104 104 105 97 96 98 95 94 96 93 85 82 73 54 39 24 25 29 23 11 2 360 356 352 346 357 359 7 351 336 329 324 326 326 329 330 332 333 325 321 310 296
110 99 94 90 92 94 94 93 92 98 97 93 81 65 51 29 19 15 16 17 12 0 358 350 339 348 358 4 6 1 354 346 339 336 337 333 331 334 333 327 328 323 306
109 103 100 96 95 93 96 94 88 84 85 74 58 45 39 26 19 14 9 7 3 359 350 342 352 352 1 8 5 2 2 355 350 346 338 331 328 326 329 335 335 342 336
106 103 98 96 94 90 82 76 73 59 60 59 51 36 34 28 20 7 8 8 1 6 360 1 359 3 12 9 7 3 360 357 351 341 335 331 329 335 336 342 336 339 337
107 110 107 107 104 92 78 70 72 57 57 59 46 48 30 26 8 3 11 13 11 6 3 11 13 13 13 10 5 360 358 355 353 348 342 337 337 338 335 343 339 334 328
117 118 118 125 122 113 103 87 69 72 69 68 66 59 44 18 11 17 36 33 27 23 29 25 22 17 12 6 1 353 356 353 351 347 342 339 336 335 332 336 336 332 323
114 118 120 121 118 112 100 99 107 75 64 54 51 45 39 27 35 50 39 43 35 33 35 29 25 19 13 6 0 353 346 347 348 348 343 340 337 335 334 331 333 331 328
116 115 114 109 103 100 94 89 83 84 89 92 55 55 42 44 45 42 38 44 38 34 33 28 21 17 10 5 1 358 353 352 351 348 346 342 339 335 331 331 330 327 324
121 115 110 107 103 101 98 95 91 87 83 74 69 51 28 32 44 40 38 40 34 31 27 25 19 15 11 5 1 358 356 353 350 347 347 344 340 337 330 328 325 325 327
113 114 116 116 114 107 105 101 97 90 82 70 55 38 33 45 43 39 37 34 31 28 24 21 16 13 10 5 2 360 357 355 351 350 347 344 341 337 333 331 330 326 327
123 117 117 115 111 106 102 97 94 93 89 82 67 55 53 44 43 40 35 32 29 24 20 16 14 12 9 6 2 360 357 353 350 348 346 345 342 340 340 339 338 341 355
130 124 117 112 109 107 103 99 96 92 86 81 77 54 52 51 45 40 35 32 29 24 20 14 14 12 9 7 2 359 355 352 348 346 346 346 345 345 344 344 348 350 354
123 119 114 107 108 112 103 98 93 89 84 76 65 55 49 46 42 37 33 28 26 23 20 17 14 12 9 8 6 3 356 350 350 349 349 349 350 349 349 349 349 351 352
122 117 111 107 104 104 102 100 97 87 81 73 62 52 45 42 38 34 30 25 24 22 21 17 14 12 9 9 6 5 356 359 360 359 3 353 356 356 356 356 355 356 355
119 114 112 115 113 111 110 102 95 89 79 69 59 50 42 38 35 31 26 22 21 20 20 17 12 10 8 7 5 4 6 17 15 12 7 357 2 6 5 2 1 1 4
117 113 115 116 114 111 105 100 94 86 79 72 63 54 46 38 33 27 22 18 16 17 19 16 10 9 6 4 5 7 14 20 19 18 11 4 4 5 9 9 8 9 9